Yuma MCAS, AZ

4:08 PM MST on May 22, 2017 (GMT -0700)
Yuma Marine Corps Air Station

Weather History for KNYL - September, 2013

Change the Weather History Date:

Thursday, September 12, 2013

  Actual Average Record
Temperature  
Mean Temperature 92 °F 90 °F  
Max Temperature 103 °F 103 °F 114 °F (1960)
Min Temperature 80 °F 78 °F 58 °F (1930)
Degree Days  
Heating Degree Days 0 0  
Month to date heating degree days 0 0  
Since 1 July heating degree days 0 0  
Cooling Degree Days 27 26  
Month to date cooling degree days 324 323  
Year to date cooling degree days 4022 3776  
Growing Degree Days 42 (Base 50)    
Moisture  
Dew Point 59 °F    
Average Humidity 42    
Maximum Humidity 69    
Minimum Humidity 15    
Precipitation  
Precipitation 0.00 in 0.02 in 0.10 in (1939)
Month to date precipitation 0.51 0.21  
Year to date precipitation 2.31 2.30  
Sea Level Pressure  
Sea Level Pressure 29.76 in    
Wind  
Wind Speed 5 mph (North)    
Max Wind Speed 12 mph    
Max Gust Speed 14 mph    
Visibility 10 miles    
Events      
T = Trace of Precipitation, MM = Missing Value Source: NWS Daily Summary

Daily Weather History Graph

Daily Weather History Graph

Search for Another Location

Airport or City:

Trip Planner

Search our weather history database for the weather conditions in past years. The results will help you decide how hot, cold, wet, or windy it might be!

Date:

Astronomy

Sep. 12, 2013 Rise Set
Actual Time 6:20 AM MST 6:48 PM MST
Civil Twilight 5:55 AM MST 7:12 PM MST
Nautical Twilight 5:26 AM MST 7:41 PM MST
Astronomical Twilight 4:57 AM MST 8:11 PM MST
Moon 1:30 PM MST (9/12) No Moon Set
Length of Visible Light 13h 17m
Length of Day
12h 27m
Waxing Crescent, 51% of the Moon is Illuminated
Sep 12
Waxing Crescent
Sep 19
Full
Sep 26
Last Quarter
Oct 4
New
Oct 11
First Quarter

Hourly Weather History & Observations

Time (MST) Temp. Heat Index Dew Point Humidity Pressure Visibility Wind Dir Wind Speed Gust Speed Precip Events Conditions
12:57 AM 84.0 °F 87.0 °F 68.0 °F 58% 29.81 in 10.0 mi Calm Calm - N/A   Clear
1:57 AM 82.9 °F 86.5 °F 69.1 °F 63% 29.81 in 10.0 mi Calm Calm - N/A   Clear
2:57 AM 82.9 °F 87.0 °F 70.0 °F 65% 29.79 in 10.0 mi ENE 4.6 mph - N/A   Clear
3:57 AM 81.0 °F 84.1 °F 69.1 °F 67% 29.79 in 10.0 mi NNE 3.5 mph - N/A   Clear
4:57 AM 81.0 °F 84.1 °F 69.1 °F 67% 29.79 in 10.0 mi NNE 3.5 mph - N/A   Clear
5:57 AM 81.0 °F 84.1 °F 69.1 °F 67% 29.80 in 10.0 mi ENE 3.5 mph - N/A   Clear
6:57 AM 82.0 °F 84.1 °F 66.0 °F 58% 29.82 in 10.0 mi NE 9.2 mph - N/A   Clear
7:57 AM 84.0 °F 85.8 °F 64.9 °F 53% 29.83 in 10.0 mi NNE 11.5 mph - N/A   Clear
8:57 AM 88.0 °F 89.6 °F 64.9 °F 46% 29.84 in 10.0 mi NNE 8.1 mph - N/A   Clear
9:57 AM 93.0 °F 93.0 °F 61.0 °F 34% 29.83 in 10.0 mi NNE 5.8 mph - N/A   Clear
10:57 AM 96.1 °F 95.2 °F 57.9 °F 28% 29.82 in 10.0 mi East 6.9 mph - N/A   Clear
11:57 AM 98.1 °F 96.4 °F 55.9 °F 24% 29.80 in 10.0 mi Variable 5.8 mph - N/A   Clear
12:57 PM 99.0 °F 97.7 °F 55.9 °F 24% 29.78 in 10.0 mi Variable 4.6 mph - N/A   Partly Cloudy
1:57 PM 102.0 °F - 51.1 °F 18% 29.75 in 10.0 mi North 10.4 mph - N/A   Partly Cloudy
2:57 PM 102.0 °F - 48.0 °F 16% 29.73 in 10.0 mi Variable 3.5 mph - N/A   Partly Cloudy
3:57 PM 102.0 °F - 46.9 °F 16% 29.71 in 10.0 mi Calm Calm - N/A   Scattered Clouds
4:57 PM 102.0 °F - 48.0 °F 16% 29.69 in 10.0 mi Calm Calm - N/A   Partly Cloudy
5:57 PM 100.0 °F - 48.0 °F 17% 29.68 in 10.0 mi Calm Calm - N/A   Partly Cloudy
6:57 PM 96.1 °F 94.1 °F 55.0 °F 25% 29.69 in 10.0 mi WSW 6.9 mph - N/A   Clear
7:57 PM 95.0 °F 93.0 °F 55.0 °F 26% 29.69 in 10.0 mi WSW 5.8 mph - N/A   Clear
8:57 PM 91.9 °F 90.6 °F 57.0 °F 31% 29.70 in 10.0 mi West 4.6 mph - N/A   Clear
9:57 PM 89.1 °F 88.0 °F 57.9 °F 35% 29.70 in 7.0 mi WNW 4.6 mph - N/A   Clear
10:57 PM 88.0 °F 86.5 °F 55.9 °F 34% 29.71 in 7.0 mi WNW 5.8 mph - N/A   Clear
11:57 PM 87.1 °F 85.1 °F 54.0 °F 32% 29.71 in 7.0 mi WNW 4.6 mph - N/A   Clear